TimeEST,TemperatureF,Dew PointF,Humidity,Sea Level PressureIn,VisibilityMPH,Wind Direction,Wind SpeedMPH,Gust SpeedMPH,PrecipitationIn,Events,Conditions,WindDirDegrees,DateUTC
12:56 AM,39.9,37.9,93,30.41,0.8,Calm,Calm,-,N/A,,Mist,0,2012-12-02 05:56:00
1:56 AM,39.9,39.0,97,30.41,0.8,Calm,Calm,-,N/A,,Mist,0,2012-12-02 06:56:00
2:37 AM,39.2,39.2,100,30.38,0.2,Calm,Calm,-,N/A,Fog,Fog,0,2012-12-02 07:37:00
2:56 AM,39.9,39.9,100,30.40,0.2,Calm,Calm,-,N/A,Fog,Fog,0,2012-12-02 07:56:00
3:56 AM,41.0,39.0,93,30.39,0.2,NNE,3.5,-,N/A,Fog,Fog,30,2012-12-02 08:56:00
4:56 AM,39.0,37.9,96,30.39,0.2,NNW,5.8,-,N/A,Fog,Fog,330,2012-12-02 09:56:00
5:56 AM,39.0,37.9,96,30.39,0.2,Calm,Calm,-,N/A,Fog,Fog,0,2012-12-02 10:56:00
6:56 AM,39.0,39.0,100,30.38,0.0,Calm,Calm,-,N/A,Fog,Fog,0,2012-12-02 11:56:00
7:56 AM,39.9,39.0,97,30.37,0.0,Calm,Calm,-,N/A,Fog,Fog,0,2012-12-02 12:56:00
8:56 AM,41.0,39.9,96,30.35,0.0,SE,3.5,-,N/A,Fog,Fog,130,2012-12-02 13:56:00
9:56 AM,42.1,41.0,96,30.34,0.0,Calm,Calm,-,N/A,Fog,Fog,0,2012-12-02 14:56:00
10:56 AM,43.0,42.1,97,30.32,0.2,Variable,3.5,-,N/A,Fog,Fog,0,2012-12-02 15:56:00
11:26 AM,42.8,42.8,100,30.28,0.2,Variable,3.5,-,N/A,Fog,Fog,0,2012-12-02 16:26:00
11:56 AM,44.1,43.0,96,30.28,0.2,Calm,Calm,-,N/A,Fog,Fog,0,2012-12-02 16:56:00
12:24 PM,44.6,44.6,100,30.24,0.8,South,3.5,-,N/A,,Overcast,180,2012-12-02 17:24:00
12:56 PM,45.0,44.1,97,30.23,1.0,SSE,3.5,-,N/A,,Mostly Cloudy,160,2012-12-02 17:56:00
1:56 PM,46.4,42.8,87,30.18,1.2,SE,5.8,-,N/A,,Mostly Cloudy,140,2012-12-02 18:56:00
2:32 PM,48.2,42.8,82,30.17,2.0,South,5.8,-,N/A,,Partly Cloudy,170,2012-12-02 19:32:00
2:56 PM,48.9,43.0,80,30.18,2.0,South,5.8,-,N/A,,Clear,180,2012-12-02 19:56:00
3:15 PM,48.2,42.8,82,30.17,5.0,SSE,6.9,-,N/A,,Mostly Cloudy,160,2012-12-02 20:15:00
3:56 PM,48.0,42.1,80,30.17,5.0,South,3.5,-,N/A,,Mostly Cloudy,180,2012-12-02 20:56:00
4:56 PM,46.0,42.1,86,30.16,6.0,South,4.6,-,N/A,,Mostly Cloudy,180,2012-12-02 21:56:00
5:29 PM,44.6,42.8,93,30.13,4.0,South,4.6,-,N/A,,Scattered Clouds,170,2012-12-02 22:29:00
5:37 PM,46.4,42.8,87,30.13,4.0,SSE,3.5,-,N/A,,Mostly Cloudy,160,2012-12-02 22:37:00
5:39 PM,46.4,42.8,87,30.13,2.0,SSE,4.6,-,N/A,,Mostly Cloudy,160,2012-12-02 22:39:00
5:56 PM,46.0,43.0,89,30.14,2.0,Calm,Calm,-,N/A,,Overcast,0,2012-12-02 22:56:00
6:56 PM,46.0,43.0,89,30.14,2.0,Calm,Calm,-,N/A,,Overcast,0,2012-12-02 23:56:00
7:56 PM,46.9,44.1,90,30.13,6.0,SSE,5.8,-,0.01,Rain,Light Rain,160,2012-12-03 00:56:00
8:56 PM,46.9,45.0,93,30.14,3.0,Calm,Calm,-,0.01,Rain,Light Rain,0,2012-12-03 01:56:00
9:56 PM,46.9,45.0,93,30.13,3.0,SW,3.5,-,0.07,Rain,Light Rain,230,2012-12-03 02:56:00
10:56 PM,46.9,45.0,93,30.12,4.0,Calm,Calm,-,0.00,Rain,Light Rain,0,2012-12-03 03:56:00
11:56 PM,48.0,46.0,93,30.11,3.0,Variable,3.5,-,0.00,,Overcast,0,2012-12-03 04:56:00